Truth Or Consequences, NM

9:26 PM MDT on August 23, 2017 (GMT -0600)
Truth Or Consequences Municipal

Weather History for KTCS - November, 2012

Change the Weather History Date:

Monday, November 19, 2012

  Actual Average Record
Temperature  
Mean Temperature 53 °F -  
Max Temperature 65 °F 61 °F 75 °F (2007)
Min Temperature 41 °F 35 °F 26 °F (2000)
Degree Days  
Heating Degree Days 12    
Month to date heating degree days 203  
Since 1 July heating degree days 289  
Growing Degree Days 2 (Base 50)    
Moisture  
Dew Point 30 °F    
Average Humidity 47    
Maximum Humidity 67    
Minimum Humidity 26    
Precipitation  
Precipitation 0.00 in - 0.00 in (2017)
Month to date precipitation 0.01  
Year to date precipitation 2.60  
Sea Level Pressure  
Sea Level Pressure 30.16 in    
Wind  
Wind Speed 5 mph (NNW)    
Max Wind Speed 13 mph    
Max Gust Speed 16 mph    
Visibility 10 miles    
Events      
T = Trace of Precipitation, MM = Missing Value Source: NWS Daily Summary

Daily Weather History Graph

Daily Weather History Graph

Search for Another Location

Airport or City:

Trip Planner

Search our weather history database for the weather conditions in past years. The results will help you decide how hot, cold, wet, or windy it might be!

Date:

Astronomy

Nov. 19, 2012 Rise Set
Actual Time 6:44 AM MST 5:04 PM MST
Civil Twilight 6:17 AM MST 5:31 PM MST
Nautical Twilight 5:47 AM MST 6:01 PM MST
Astronomical Twilight 5:18 AM MST 6:30 PM MST
Moon 11:55 AM MST (11/19) 11:26 PM MST (11/19)
Length of Visible Light 11h 13m
Length of Day
10h 20m
Waxing Crescent, 41% of the Moon is Illuminated
Nov 19
Waxing Crescent
Nov 20
First Quarter
Nov 28
Full
Dec 6
Last Quarter
Dec 13
New

Hourly Weather History & Observations

Time (MST) Temp. Windchill Dew Point Humidity Pressure Visibility Wind Dir Wind Speed Gust Speed Precip Events Conditions
12:53 AM 43.0 °F - 32.0 °F 65% 30.12 in 10.0 mi Calm Calm - N/A   Clear
1:53 AM 46.0 °F 41.0 °F 32.0 °F 58% 30.11 in 10.0 mi West 10.4 mph - N/A   Clear
2:53 AM 48.0 °F - 30.9 °F 52% 30.10 in 10.0 mi WNW 10.4 mph - N/A   Clear
3:53 AM 45.0 °F 40.6 °F 30.0 °F 56% 30.11 in 10.0 mi NW 8.1 mph - N/A   Clear
4:53 AM 43.0 °F 40.3 °F 30.0 °F 60% 30.12 in 10.0 mi NW 4.6 mph - N/A   Clear
5:53 AM 42.1 °F 40.2 °F 30.0 °F 62% 30.16 in 10.0 mi NW 3.5 mph - N/A   Clear
6:53 AM 43.0 °F 39.5 °F 30.0 °F 60% 30.18 in 10.0 mi NW 5.8 mph - N/A   Clear
7:53 AM 46.0 °F 43.9 °F 30.0 °F 54% 30.20 in 10.0 mi NE 4.6 mph - N/A   Clear
8:53 AM 53.1 °F - 32.0 °F 45% 30.21 in 10.0 mi NNE 3.5 mph - N/A   Clear
9:53 AM 55.9 °F - 34.0 °F 44% 30.22 in 10.0 mi Calm Calm - N/A   Clear
10:53 AM 60.1 °F - 34.0 °F 38% 30.20 in 10.0 mi East 4.6 mph - N/A   Clear
11:53 AM 62.1 °F - 35.1 °F 37% 30.18 in 10.0 mi ESE 8.1 mph - N/A   Clear
12:53 PM 63.0 °F - 30.9 °F 30% 30.15 in 10.0 mi South 5.8 mph - N/A   Clear
1:53 PM 64.0 °F - 30.0 °F 28% 30.13 in 10.0 mi Calm Calm - N/A   Clear
2:53 PM 64.9 °F - 28.9 °F 26% 30.11 in 10.0 mi ENE 3.5 mph - N/A   Clear
3:53 PM 64.0 °F - 28.9 °F 27% 30.12 in 10.0 mi East 3.5 mph - N/A   Clear
4:53 PM 60.1 °F - 28.0 °F 30% 30.15 in 10.0 mi East 3.5 mph - N/A   Clear
5:53 PM 55.9 °F - 27.0 °F 33% 30.18 in 10.0 mi ENE 4.6 mph - N/A   Clear
6:53 PM 55.0 °F - 28.0 °F 35% 30.20 in 10.0 mi Calm Calm - N/A   Clear
7:53 PM 48.0 °F - 25.0 °F 41% 30.21 in 10.0 mi Calm Calm - N/A   Clear
8:53 PM 46.9 °F - 25.0 °F 42% 30.20 in 10.0 mi NW 6.9 mph - N/A   Clear
9:53 PM 46.0 °F 41.9 °F 26.1 °F 46% 30.21 in 10.0 mi WNW 8.1 mph - N/A   Clear
10:53 PM 44.1 °F 39.5 °F 26.1 °F 49% 30.19 in 10.0 mi WNW 8.1 mph - N/A   Clear
11:53 PM 44.1 °F 39.0 °F 26.1 °F 49% 30.19 in 10.0 mi WNW 9.2 mph - N/A   Clear